JST163 YBCG-NZHN

Flight info

Callsign JST163
Flight time 2h 46m
Altitude 39000
Route GOMOL DCT LAMSI DCT NETTY DCT 31S160E DCT RIGMI/N0460F370 DCT 33S165E 35S170E DCT UPLAR/N0463F360 Q537 POKOM
Aircraft A20N/M-SDE2E3FGHIRWXY/LB1

Departure

Time 2026-05-03 22:55
Airport Gold Coast Airport (YBCG)

Arrival

Time 2026-05-04 01:42
Airport Hamilton International Airport (NZHN)
Time Latitude Longitude Altitude Speed Heading
2026-05-03 22:40 -28.16854 153.51307 23 ft 0 kts 60°
2026-05-03 22:46 -28.16857 153.51301 24 ft 2 kts 59°
2026-05-03 22:46 -28.16868 153.51282 25 ft 3 kts 56°
2026-05-03 22:46 -28.16879 153.51264 27 ft 3 kts 54°
2026-05-03 22:47 -28.16888 153.51249 27 ft 2 kts 56°
2026-05-03 22:47 -28.16896 153.51233 27 ft 3 kts 104°
2026-05-03 22:47 -28.16887 153.51217 27 ft 3 kts 146°
2026-05-03 22:47 -28.16869 153.51205 25 ft 3 kts 148°
2026-05-03 22:48 -28.16852 153.51193 26 ft 3 kts 148°
2026-05-03 22:48 -28.16836 153.51182 26 ft 2 kts 148°
2026-05-03 22:48 -28.16831 153.51178 28 ft 0 kts 148°
2026-05-03 22:50 -28.16831 153.51179 25 ft 1 kts 148°
2026-05-03 22:50 -28.16836 153.51191 24 ft 1 kts 75°
2026-05-03 22:51 -28.16818 153.51188 23 ft 5 kts 319°
2026-05-03 22:51 -28.16766 153.51137 26 ft 15 kts 327°
2026-05-03 22:51 -28.16660 153.51071 26 ft 19 kts 330°
2026-05-03 22:51 -28.16541 153.50995 29 ft 16 kts 330°
2026-05-03 22:52 -28.16476 153.50919 25 ft 14 kts 265°
2026-05-03 22:52 -28.16477 153.50816 28 ft 14 kts 311°
2026-05-03 22:52 -28.16420 153.50774 27 ft 16 kts 332°
2026-05-03 22:52 -28.16314 153.50707 28 ft 19 kts 330°
2026-05-03 22:53 -28.16193 153.50629 30 ft 21 kts 331°
2026-05-03 22:53 -28.16009 153.50513 27 ft 24 kts 330°
2026-05-03 22:53 -28.15911 153.50450 27 ft 25 kts 331°
2026-05-03 22:53 -28.15754 153.50352 28 ft 26 kts 331°
2026-05-03 22:54 -28.15628 153.50266 29 ft 16 kts 325°
2026-05-03 22:54 -28.15610 153.50180 29 ft 13 kts 251°
2026-05-03 22:54 -28.15660 153.50097 29 ft 11 kts 195°
2026-05-03 22:54 -28.15747 153.50134 29 ft 24 kts 151°
2026-05-03 22:55 -28.16107 153.50361 27 ft 92 kts 150°
2026-05-03 22:55 -28.16830 153.50822 27 ft 144 kts 150°
2026-05-03 22:55 -28.17731 153.51406 466 ft 147 kts 151°
2026-05-03 22:55 -28.18614 153.51971 1079 ft 142 kts 152°
2026-05-03 22:56 -28.19444 153.52505 1815 ft 135 kts 149°
2026-05-03 22:56 -28.20304 153.53081 2229 ft 154 kts 141°
2026-05-03 22:56 -28.20872 153.54162 2663 ft 172 kts 104°
2026-05-03 22:56 -28.20953 153.55610 3077 ft 198 kts 90°
2026-05-03 22:57 -28.20913 153.57271 3591 ft 221 kts 94°
2026-05-03 22:57 -28.21281 153.59029 4243 ft 241 kts 111°
2026-05-03 22:57 -28.21952 153.60833 5072 ft 253 kts 113°
2026-05-03 22:57 -28.22681 153.62665 6121 ft 257 kts 114°
2026-05-03 22:58 -28.23423 153.64536 7066 ft 264 kts 113°
2026-05-03 22:58 -28.24171 153.66456 7997 ft 268 kts 113°
2026-05-03 22:58 -28.24924 153.68423 8879 ft 277 kts 113°
2026-05-03 22:58 -28.25699 153.70464 9696 ft 286 kts 113°
2026-05-03 22:59 -28.26495 153.72564 10463 ft 296 kts 113°
2026-05-03 22:59 -28.27339 153.74791 10818 ft 319 kts 113°
2026-05-03 22:59 -28.28245 153.77187 11146 ft 340 kts 113°
2026-05-03 22:59 -28.29189 153.79683 11870 ft 347 kts 113°
2026-05-03 23:00 -28.30146 153.82218 12667 ft 352 kts 113°
2026-05-03 23:00 -28.31116 153.84785 13461 ft 356 kts 113°
2026-05-03 23:00 -28.32098 153.87391 14186 ft 362 kts 113°
2026-05-03 23:00 -28.33095 153.90035 14852 ft 367 kts 113°
2026-05-03 23:01 -28.34091 153.92682 15492 ft 372 kts 114°
2026-05-03 23:01 -28.35114 153.95398 16140 ft 377 kts 114°
2026-05-03 23:01 -28.36150 153.98153 16779 ft 382 kts 114°
2026-05-03 23:01 -28.37200 154.00947 17405 ft 387 kts 114°
2026-05-03 23:02 -28.38263 154.03775 18040 ft 391 kts 115°
2026-05-03 23:02 -28.39336 154.06628 18662 ft 395 kts 115°
2026-05-03 23:02 -28.40419 154.09516 19194 ft 399 kts 115°
2026-05-03 23:02 -28.41512 154.12432 19743 ft 403 kts 115°
2026-05-03 23:03 -28.42615 154.15378 20273 ft 407 kts 115°
2026-05-03 23:03 -28.43720 154.18357 20802 ft 412 kts 113°
2026-05-03 23:03 -28.44598 154.21481 21320 ft 418 kts 106°
2026-05-03 23:03 -28.45308 154.24706 21821 ft 423 kts 106°
2026-05-03 23:04 -28.46037 154.27967 22331 ft 428 kts 106°
2026-05-03 23:04 -28.46777 154.31257 22810 ft 433 kts 106°
2026-05-03 23:04 -28.47526 154.34585 23322 ft 437 kts 107°
2026-05-03 23:04 -28.48280 154.37945 23804 ft 441 kts 107°
2026-05-03 23:05 -28.49040 154.41338 24223 ft 445 kts 107°
2026-05-03 23:05 -28.49806 154.44766 24652 ft 449 kts 107°
2026-05-03 23:05 -28.50577 154.48218 25065 ft 453 kts 107°
2026-05-03 23:05 -28.51354 154.51705 25475 ft 457 kts 107°
2026-05-03 23:06 -28.52137 154.55222 25871 ft 461 kts 107°
2026-05-03 23:06 -28.52926 154.58771 26270 ft 465 kts 107°
2026-05-03 23:06 -28.53721 154.62352 26652 ft 469 kts 107°
2026-05-03 23:06 -28.54521 154.65960 27036 ft 473 kts 107°
2026-05-03 23:07 -28.55327 154.69600 27423 ft 476 kts 108°
2026-05-03 23:07 -28.56138 154.73266 27805 ft 480 kts 108°
2026-05-03 23:07 -28.56955 154.76963 28177 ft 484 kts 108°
2026-05-03 23:07 -28.57776 154.80689 28545 ft 487 kts 108°
2026-05-03 23:08 -28.58603 154.84442 28907 ft 491 kts 108°
2026-05-03 23:08 -28.59435 154.88226 29255 ft 495 kts 108°
2026-05-03 23:08 -28.60271 154.92033 29583 ft 498 kts 108°
2026-05-03 23:08 -28.61102 154.95824 29921 ft 501 kts 108°
2026-05-03 23:09 -28.61948 154.99687 30241 ft 505 kts 108°
2026-05-03 23:09 -28.62798 155.03571 30549 ft 507 kts 109°
2026-05-03 23:09 -28.63650 155.07477 30882 ft 509 kts 109°
2026-05-03 23:09 -28.64505 155.11397 31207 ft 512 kts 109°
2026-05-03 23:10 -28.65361 155.15332 31586 ft 512 kts 109°
2026-05-03 23:10 -28.66216 155.19267 31997 ft 512 kts 109°
2026-05-03 23:10 -28.67069 155.23199 32414 ft 511 kts 109°
2026-05-03 23:10 -28.67919 155.27124 32822 ft 510 kts 109°
2026-05-03 23:11 -28.68768 155.31047 33227 ft 510 kts 109°
2026-05-03 23:11 -28.69615 155.34963 33598 ft 510 kts 109°
2026-05-03 23:11 -28.70461 155.38881 33978 ft 509 kts 109°
2026-05-03 23:11 -28.71304 155.42795 34320 ft 509 kts 109°
2026-05-03 23:12 -28.72154 155.46709 34636 ft 507 kts 111°
2026-05-03 23:12 -28.73260 155.50491 34907 ft 501 kts 118°
2026-05-03 23:12 -28.74740 155.54060 35183 ft 495 kts 126°
2026-05-03 23:12 -28.76495 155.57403 35455 ft 491 kts 129°
2026-05-03 23:13 -28.78275 155.60728 35739 ft 491 kts 128°
2026-05-03 23:13 -28.80047 155.64058 35996 ft 492 kts 128°
2026-05-03 23:13 -28.81821 155.67395 36243 ft 492 kts 128°
2026-05-03 23:13 -28.83594 155.70731 36509 ft 492 kts 129°
2026-05-03 23:14 -28.85363 155.74061 36763 ft 491 kts 129°
2026-05-03 23:14 -28.87135 155.77397 37006 ft 491 kts 129°
2026-05-03 23:14 -28.88904 155.80730 37243 ft 491 kts 129°
2026-05-03 23:14 -28.90673 155.84068 37489 ft 491 kts 129°
2026-05-03 23:15 -28.92437 155.87400 37733 ft 491 kts 129°
2026-05-03 23:15 -28.94202 155.90735 37940 ft 491 kts 129°
2026-05-03 23:15 -28.95965 155.94070 38144 ft 491 kts 129°
2026-05-03 23:15 -28.97727 155.97406 38372 ft 490 kts 129°
2026-05-03 23:16 -28.99464 156.00698 38586 ft 490 kts 129°
2026-05-03 23:16 -29.01225 156.04036 38771 ft 490 kts 129°
2026-05-03 23:16 -29.03007 156.07418 38937 ft 490 kts 129°
2026-05-03 23:16 -29.04738 156.10705 39098 ft 490 kts 129°
2026-05-03 23:17 -29.06493 156.14040 39174 ft 490 kts 129°
2026-05-03 23:17 -29.10001 156.20715 39177 ft 489 kts 129°
2026-05-03 23:18 -29.13498 156.27380 39178 ft 489 kts 129°
2026-05-03 23:18 -29.16996 156.34056 39175 ft 489 kts 129°
2026-05-03 23:19 -29.20489 156.40736 39176 ft 489 kts 129°
2026-05-03 23:19 -29.23975 156.47414 39173 ft 489 kts 129°
2026-05-03 23:20 -29.27460 156.54099 39173 ft 489 kts 129°
2026-05-03 23:20 -29.30938 156.60782 39177 ft 489 kts 129°
2026-05-03 23:21 -29.34416 156.67477 39177 ft 489 kts 129°
2026-05-03 23:21 -29.37889 156.74172 39176 ft 489 kts 129°
2026-05-03 23:22 -29.43096 156.84232 39174 ft 489 kts 129°
2026-05-03 23:22 -29.46569 156.90957 39176 ft 490 kts 129°
2026-05-03 23:23 -29.50037 156.97683 39182 ft 490 kts 129°
2026-05-03 23:23 -29.53510 157.04429 39184 ft 491 kts 129°
2026-05-03 23:24 -29.56957 157.11135 39188 ft 491 kts 129°
2026-05-03 23:24 -29.60428 157.17901 39197 ft 492 kts 128°
2026-05-03 23:25 -29.63898 157.24675 39191 ft 492 kts 128°
2026-05-03 23:25 -29.67368 157.31462 39201 ft 493 kts 128°
2026-05-03 23:26 -29.70837 157.38258 39194 ft 493 kts 128°
2026-05-03 23:26 -29.74305 157.45063 39200 ft 493 kts 128°
2026-05-03 23:27 -29.77771 157.51875 39201 ft 493 kts 128°
2026-05-03 23:27 -29.81235 157.58697 39208 ft 493 kts 128°
2026-05-03 23:28 -29.84695 157.65522 39195 ft 494 kts 128°
2026-05-03 23:28 -29.88154 157.72355 39203 ft 494 kts 128°
2026-05-03 23:29 -29.91607 157.79189 39198 ft 493 kts 128°
2026-05-03 23:29 -29.95056 157.86027 39200 ft 493 kts 128°
2026-05-03 23:30 -29.98502 157.92871 39200 ft 493 kts 128°
2026-05-03 23:30 -30.01943 157.99716 39204 ft 493 kts 128°
2026-05-03 23:31 -30.05378 158.06563 39203 ft 493 kts 128°
2026-05-03 23:31 -30.08787 158.13367 39205 ft 493 kts 128°
2026-05-03 23:32 -30.12214 158.20219 39151 ft 493 kts 128°
2026-05-03 23:32 -30.15651 158.27093 39207 ft 497 kts 127°
2026-05-03 23:33 -30.19134 158.34074 39207 ft 506 kts 127°
2026-05-03 23:33 -30.22670 158.41180 39204 ft 514 kts 127°
2026-05-03 23:34 -30.26247 158.48387 39208 ft 517 kts 127°
2026-05-03 23:34 -30.29817 158.55599 39208 ft 516 kts 127°
2026-05-03 23:35 -30.33384 158.62809 39210 ft 516 kts 127°
2026-05-03 23:35 -30.36945 158.70021 39213 ft 516 kts 127°
2026-05-03 23:36 -30.40499 158.77231 39216 ft 515 kts 127°
2026-05-03 23:36 -30.44050 158.84450 39217 ft 515 kts 127°
2026-05-03 23:37 -30.47591 158.91661 39210 ft 515 kts 127°
2026-05-03 23:37 -30.51104 158.98828 39207 ft 515 kts 127°
2026-05-03 23:38 -30.54633 159.06042 39209 ft 514 kts 127°
2026-05-03 23:38 -30.58158 159.13262 39213 ft 514 kts 127°
2026-05-03 23:39 -30.61679 159.20485 39220 ft 514 kts 127°
2026-05-03 23:39 -30.65189 159.27699 39227 ft 513 kts 127°
2026-05-03 23:40 -30.68696 159.34922 39227 ft 513 kts 127°
2026-05-03 23:40 -30.72197 159.42144 39228 ft 513 kts 127°
2026-05-03 23:41 -30.75690 159.49365 39226 ft 512 kts 127°
2026-05-03 23:41 -30.79181 159.56592 39226 ft 512 kts 127°
2026-05-03 23:42 -30.82663 159.63816 39229 ft 512 kts 127°
2026-05-03 23:42 -30.85552 159.69820 39230 ft 512 kts 127°
2026-05-03 23:43 -30.89024 159.77049 39234 ft 511 kts 127°
2026-05-03 23:43 -30.92491 159.84277 39233 ft 511 kts 127°
2026-05-03 23:44 -30.95953 159.91503 39231 ft 511 kts 127°
2026-05-03 23:44 -30.99411 159.98736 39238 ft 511 kts 126°
2026-05-03 23:45 -31.02556 160.06213 39240 ft 514 kts 123°
2026-05-03 23:45 -31.05689 160.13697 39236 ft 513 kts 123°
2026-05-03 23:46 -31.08817 160.21184 39241 ft 513 kts 123°
2026-05-03 23:46 -31.11928 160.28677 39239 ft 513 kts 123°
2026-05-03 23:47 -31.15031 160.36177 39242 ft 513 kts 123°
2026-05-03 23:47 -31.18125 160.43673 39244 ft 512 kts 123°
2026-05-03 23:48 -31.21216 160.51176 39245 ft 512 kts 123°
2026-05-03 23:48 -31.24277 160.58619 39246 ft 512 kts 123°
2026-05-03 23:49 -31.27356 160.66124 39246 ft 512 kts 123°
2026-05-03 23:49 -31.30426 160.73623 39244 ft 511 kts 123°
2026-05-03 23:50 -31.33493 160.81129 39252 ft 511 kts 123°
2026-05-03 23:50 -31.36551 160.88628 39250 ft 511 kts 123°
2026-05-03 23:51 -31.39605 160.96133 39251 ft 511 kts 123°
2026-05-03 23:51 -31.42652 161.03637 39250 ft 510 kts 123°
2026-05-03 23:52 -31.45693 161.11141 39256 ft 510 kts 123°
2026-05-03 23:52 -31.48727 161.18644 39258 ft 510 kts 123°
2026-05-03 23:53 -31.51756 161.26151 39260 ft 509 kts 123°
2026-05-03 23:53 -31.54779 161.33658 39263 ft 509 kts 123°
2026-05-03 23:54 -31.57798 161.41170 39262 ft 509 kts 123°
2026-05-03 23:54 -31.60807 161.48675 39262 ft 509 kts 123°
2026-05-03 23:55 -31.63813 161.56187 39267 ft 508 kts 123°
2026-05-03 23:55 -31.66814 161.63702 39266 ft 509 kts 123°
2026-05-03 23:56 -31.69820 161.71234 39270 ft 517 kts 123°
2026-05-03 23:56 -31.72908 161.78994 39274 ft 524 kts 123°
2026-05-03 23:57 -31.75990 161.86771 39269 ft 525 kts 123°
2026-05-03 23:57 -31.79066 161.94550 39273 ft 525 kts 123°
2026-05-03 23:58 -31.82119 162.02278 39280 ft 525 kts 123°
2026-05-03 23:58 -31.85185 162.10058 39276 ft 525 kts 123°
2026-05-03 23:59 -31.88248 162.17847 39275 ft 525 kts 123°
2026-05-03 23:59 -31.91306 162.25640 39274 ft 524 kts 123°
2026-05-04 00:00 -31.94360 162.33441 39278 ft 524 kts 123°
2026-05-04 00:00 -31.97408 162.41243 39278 ft 524 kts 123°
2026-05-04 00:01 -32.00451 162.49050 39280 ft 524 kts 123°
2026-05-04 00:01 -32.03485 162.56852 39285 ft 524 kts 123°
2026-05-04 00:02 -32.06515 162.64662 39289 ft 523 kts 123°
2026-05-04 00:02 -32.09536 162.72464 39292 ft 523 kts 123°
2026-05-04 00:03 -32.12554 162.80277 39284 ft 523 kts 123°
2026-05-04 00:03 -32.15566 162.88090 39291 ft 523 kts 123°
2026-05-04 00:04 -32.18571 162.95897 39294 ft 523 kts 123°
2026-05-04 00:04 -32.21603 163.03693 39297 ft 521 kts 124°
2026-05-04 00:05 -32.24775 163.11377 39299 ft 520 kts 125°
2026-05-04 00:05 -32.27942 163.19049 39301 ft 520 kts 125°
2026-05-04 00:06 -32.31090 163.26745 39301 ft 520 kts 125°
2026-05-04 00:06 -32.34225 163.34443 39303 ft 520 kts 125°
2026-05-04 00:07 -32.37356 163.42149 39303 ft 520 kts 125°
2026-05-04 00:07 -32.40483 163.49861 39305 ft 519 kts 125°
2026-05-04 00:08 -32.43601 163.57568 39307 ft 519 kts 125°
2026-05-04 00:08 -32.46716 163.65283 39307 ft 519 kts 125°
2026-05-04 00:09 -32.49825 163.73000 39311 ft 519 kts 125°
2026-05-04 00:09 -32.52925 163.80714 39315 ft 519 kts 125°
2026-05-04 00:10 -32.56004 163.88390 39317 ft 519 kts 125°
2026-05-04 00:10 -32.59095 163.96115 39317 ft 518 kts 125°
2026-05-04 00:11 -32.62178 164.03837 39317 ft 518 kts 125°
2026-05-04 00:11 -32.65274 164.11607 39321 ft 517 kts 125°
2026-05-04 00:12 -32.68343 164.19327 39327 ft 517 kts 125°
2026-05-04 00:12 -32.71381 164.26988 39327 ft 516 kts 125°
2026-05-04 00:13 -32.74431 164.34695 39329 ft 515 kts 125°
2026-05-04 00:13 -32.77469 164.42388 39328 ft 514 kts 125°
2026-05-04 00:14 -32.80497 164.50074 39326 ft 513 kts 125°
2026-05-04 00:14 -32.83517 164.57754 39335 ft 512 kts 124°
2026-05-04 00:15 -32.86526 164.65423 39333 ft 511 kts 124°
2026-05-04 00:15 -32.89524 164.73083 39334 ft 511 kts 124°
2026-05-04 00:16 -32.92517 164.80743 39342 ft 510 kts 124°
2026-05-04 00:16 -32.95502 164.88403 39343 ft 510 kts 124°
2026-05-04 00:17 -32.98479 164.96057 39341 ft 509 kts 124°
2026-05-04 00:17 -33.01497 165.03683 39343 ft 506 kts 126°
2026-05-04 00:18 -33.04723 165.11121 39346 ft 505 kts 127°
2026-05-04 00:18 -33.07950 165.18555 39350 ft 505 kts 126°
2026-05-04 00:19 -33.11150 165.26009 39354 ft 505 kts 126°
2026-05-04 00:19 -33.14334 165.33469 39359 ft 504 kts 125°
2026-05-04 00:20 -33.17508 165.40928 39358 ft 504 kts 125°
2026-05-04 00:20 -33.20676 165.48389 39366 ft 504 kts 125°
2026-05-04 00:21 -33.23815 165.55799 39362 ft 503 kts 124°
2026-05-04 00:21 -33.26968 165.63256 39357 ft 503 kts 124°
2026-05-04 00:22 -33.30111 165.70708 39371 ft 502 kts 124°
2026-05-04 00:22 -33.33250 165.78164 39378 ft 501 kts 124°
2026-05-04 00:23 -33.36377 165.85609 39366 ft 501 kts 123°
2026-05-04 00:23 -33.39497 165.93055 39372 ft 500 kts 123°
2026-05-04 00:24 -33.42611 166.00501 39371 ft 500 kts 123°
2026-05-04 00:24 -33.45713 166.07934 39379 ft 499 kts 123°
2026-05-04 00:25 -33.48807 166.15363 39376 ft 498 kts 123°
2026-05-04 00:25 -33.51893 166.22791 39380 ft 497 kts 122°
2026-05-04 00:26 -33.54969 166.30208 39382 ft 497 kts 122°
2026-05-04 00:26 -33.58036 166.37622 39382 ft 496 kts 122°
2026-05-04 00:27 -33.61093 166.45026 39385 ft 495 kts 122°
2026-05-04 00:27 -33.64140 166.52423 39391 ft 494 kts 122°
2026-05-04 00:28 -33.67179 166.59816 39390 ft 493 kts 121°
2026-05-04 00:28 -33.69696 166.65953 39394 ft 493 kts 121°
2026-05-04 00:29 -33.72717 166.73332 39393 ft 492 kts 121°
2026-05-04 00:29 -33.75726 166.80695 39397 ft 491 kts 121°
2026-05-04 00:30 -33.78726 166.88054 39397 ft 490 kts 121°
2026-05-04 00:30 -33.82202 166.96600 39402 ft 489 kts 121°
2026-05-04 00:31 -33.84699 167.02753 39401 ft 488 kts 120°
2026-05-04 00:31 -33.87670 167.10089 39407 ft 487 kts 120°
2026-05-04 00:32 -33.90633 167.17419 39410 ft 487 kts 120°
2026-05-04 00:32 -33.93588 167.24745 39410 ft 486 kts 120°
2026-05-04 00:33 -33.97981 167.35668 39412 ft 485 kts 120°
2026-05-04 00:34 -34.00915 167.42982 39411 ft 484 kts 119°
2026-05-04 00:34 -34.03839 167.50286 39417 ft 484 kts 119°
2026-05-04 00:35 -34.06755 167.57588 39414 ft 483 kts 119°
2026-05-04 00:35 -34.09667 167.64896 39417 ft 483 kts 119°
2026-05-04 00:36 -34.12570 167.72197 39418 ft 482 kts 118°
2026-05-04 00:36 -34.15464 167.79491 39421 ft 482 kts 118°
2026-05-04 00:37 -34.18355 167.86789 39421 ft 481 kts 118°
2026-05-04 00:37 -34.21242 167.94081 39422 ft 481 kts 118°
2026-05-04 00:38 -34.24124 168.01381 39425 ft 481 kts 118°
2026-05-04 00:38 -34.26998 168.08687 39425 ft 481 kts 118°
2026-05-04 00:39 -34.29867 168.16000 39431 ft 481 kts 118°
2026-05-04 00:39 -34.32730 168.23312 39424 ft 481 kts 118°
2026-05-04 00:40 -34.35591 168.30638 39433 ft 481 kts 118°
2026-05-04 00:40 -34.38448 168.37965 39429 ft 482 kts 117°
2026-05-04 00:41 -34.41302 168.45305 39429 ft 482 kts 117°
2026-05-04 00:41 -34.44152 168.52647 39432 ft 482 kts 117°
2026-05-04 00:42 -34.47003 168.60007 39436 ft 482 kts 117°
2026-05-04 00:42 -34.49846 168.67367 39436 ft 483 kts 117°
2026-05-04 00:43 -34.52688 168.74739 39440 ft 483 kts 117°
2026-05-04 00:43 -34.55528 168.82125 39440 ft 483 kts 117°
2026-05-04 00:44 -34.58347 168.89469 39440 ft 483 kts 117°
2026-05-04 00:44 -34.61180 168.96865 39441 ft 484 kts 117°
2026-05-04 00:45 -34.64011 169.04276 39444 ft 484 kts 117°
2026-05-04 00:45 -34.66838 169.11692 39445 ft 484 kts 116°
2026-05-04 00:46 -34.69661 169.19114 39447 ft 484 kts 116°
2026-05-04 00:46 -34.72483 169.26549 39448 ft 485 kts 116°
2026-05-04 00:47 -34.75300 169.33994 39448 ft 485 kts 116°
2026-05-04 00:47 -34.78116 169.41447 39455 ft 485 kts 116°
2026-05-04 00:48 -34.80926 169.48902 39454 ft 485 kts 116°
2026-05-04 00:48 -34.83735 169.56374 39458 ft 485 kts 116°
2026-05-04 00:49 -34.86536 169.63842 39456 ft 485 kts 116°
2026-05-04 00:49 -34.89337 169.71324 39459 ft 486 kts 115°
2026-05-04 00:50 -34.92133 169.78810 39452 ft 485 kts 115°
2026-05-04 00:50 -34.94923 169.86299 39464 ft 486 kts 115°
2026-05-04 00:51 -34.97710 169.93800 39466 ft 486 kts 115°
2026-05-04 00:51 -35.00669 170.01189 39467 ft 485 kts 122°
2026-05-04 00:52 -35.04306 170.08118 39465 ft 485 kts 124°
2026-05-04 00:52 -35.07912 170.15000 39465 ft 485 kts 124°
2026-05-04 00:53 -35.11539 170.21951 39464 ft 485 kts 123°
2026-05-04 00:53 -35.15186 170.28954 39470 ft 485 kts 123°
2026-05-04 00:54 -35.18809 170.35923 39471 ft 485 kts 123°
2026-05-04 00:54 -35.22399 170.42841 39474 ft 485 kts 123°
2026-05-04 00:55 -35.26039 170.49869 39479 ft 486 kts 123°
2026-05-04 00:55 -35.29626 170.56806 39477 ft 486 kts 123°
2026-05-04 00:56 -35.33240 170.63811 39476 ft 486 kts 123°
2026-05-04 00:56 -35.36849 170.70816 39479 ft 486 kts 123°
2026-05-04 00:57 -35.40456 170.77833 39475 ft 486 kts 123°
2026-05-04 00:57 -35.44059 170.84858 39479 ft 487 kts 123°
2026-05-04 00:58 -35.47658 170.91889 39477 ft 486 kts 123°
2026-05-04 00:58 -35.51250 170.98917 39484 ft 486 kts 123°
2026-05-04 00:59 -35.54843 171.05955 39491 ft 486 kts 124°
2026-05-04 00:59 -35.59026 171.12449 39489 ft 485 kts 135°
2026-05-04 01:00 -35.63733 171.18395 39491 ft 485 kts 135°
2026-05-04 01:00 -35.68419 171.24359 39489 ft 485 kts 135°
2026-05-04 01:01 -35.73102 171.30317 39495 ft 484 kts 135°
2026-05-04 01:01 -35.77785 171.36283 39494 ft 484 kts 135°
2026-05-04 01:02 -35.82464 171.42255 39494 ft 484 kts 135°
2026-05-04 01:02 -35.87139 171.48235 39498 ft 485 kts 135°
2026-05-04 01:03 -35.91813 171.54224 39503 ft 484 kts 135°
2026-05-04 01:03 -35.96485 171.60221 39503 ft 485 kts 135°
2026-05-04 01:04 -36.01153 171.66223 39499 ft 484 kts 135°
2026-05-04 01:04 -36.05814 171.72228 39506 ft 485 kts 135°
2026-05-04 01:05 -36.10475 171.78242 39510 ft 484 kts 135°
2026-05-04 01:05 -36.15131 171.84261 39501 ft 484 kts 134°
2026-05-04 01:06 -36.19784 171.90288 39507 ft 484 kts 134°
2026-05-04 01:06 -36.24428 171.96314 39509 ft 484 kts 134°
2026-05-04 01:07 -36.29075 172.02355 39509 ft 484 kts 134°
2026-05-04 01:07 -36.33710 172.08393 39512 ft 483 kts 134°
2026-05-04 01:08 -36.38306 172.14389 39512 ft 482 kts 134°
2026-05-04 01:08 -36.42923 172.20425 39521 ft 482 kts 134°
2026-05-04 01:09 -36.47533 172.26461 39519 ft 482 kts 134°
2026-05-04 01:09 -36.52139 172.32504 39522 ft 481 kts 134°
2026-05-04 01:10 -36.56740 172.38552 39524 ft 481 kts 134°
2026-05-04 01:10 -36.61334 172.44602 39522 ft 481 kts 134°
2026-05-04 01:11 -36.65922 172.50656 39524 ft 480 kts 134°
2026-05-04 01:11 -36.70504 172.56712 39523 ft 480 kts 134°
2026-05-04 01:12 -36.75079 172.62770 39525 ft 480 kts 134°
2026-05-04 01:12 -36.79653 172.68839 39525 ft 480 kts 134°
2026-05-04 01:13 -36.84216 172.74905 39528 ft 480 kts 134°
2026-05-04 01:13 -36.88782 172.80984 39530 ft 480 kts 134°
2026-05-04 01:14 -36.93343 172.87070 39535 ft 479 kts 134°
2026-05-04 01:14 -36.97893 172.93152 39539 ft 479 kts 134°
2026-05-04 01:15 -37.01675 172.98216 39535 ft 479 kts 134°
2026-05-04 01:15 -37.06217 173.04308 39533 ft 476 kts 134°
2026-05-04 01:15 -37.08444 173.07301 39534 ft 463 kts 134°
2026-05-04 01:16 -37.10617 173.10223 39536 ft 456 kts 134°
2026-05-04 01:16 -37.14976 173.16091 39536 ft 463 kts 134°
2026-05-04 01:17 -37.19355 173.21996 39509 ft 462 kts 133°
2026-05-04 01:17 -37.21539 173.24946 39313 ft 461 kts 133°
2026-05-04 01:17 -37.23718 173.27891 38959 ft 460 kts 133°
2026-05-04 01:17 -37.25900 173.30843 38208 ft 463 kts 133°
2026-05-04 01:18 -37.28100 173.33822 37306 ft 467 kts 133°
2026-05-04 01:18 -37.30307 173.36813 36695 ft 464 kts 133°
2026-05-04 01:18 -37.32500 173.39788 35979 ft 464 kts 133°
2026-05-04 01:18 -37.34695 173.42769 35249 ft 465 kts 133°
2026-05-04 01:19 -37.36888 173.45749 34493 ft 465 kts 133°
2026-05-04 01:19 -37.39086 173.48739 33679 ft 465 kts 133°
2026-05-04 01:19 -37.41277 173.51722 32903 ft 464 kts 132°
2026-05-04 01:19 -37.43465 173.54704 32123 ft 463 kts 132°
2026-05-04 01:20 -37.45640 173.57671 31496 ft 459 kts 132°
2026-05-04 01:20 -37.47791 173.60609 30955 ft 454 kts 132°
2026-05-04 01:20 -37.49920 173.63518 30365 ft 449 kts 132°
2026-05-04 01:20 -37.52017 173.66386 29798 ft 442 kts 131°
2026-05-04 01:21 -37.54084 173.69217 29248 ft 435 kts 131°
2026-05-04 01:21 -37.56116 173.72001 28705 ft 429 kts 131°
2026-05-04 01:21 -37.58123 173.74755 28170 ft 423 kts 131°
2026-05-04 01:21 -37.60098 173.77466 27639 ft 417 kts 131°
2026-05-04 01:22 -37.62048 173.80146 27115 ft 412 kts 131°
2026-05-04 01:22 -37.63974 173.82794 26598 ft 407 kts 131°
2026-05-04 01:22 -37.65877 173.85413 26084 ft 403 kts 131°
2026-05-04 01:22 -37.67762 173.88010 25572 ft 399 kts 131°
2026-05-04 01:23 -37.69625 173.90577 25063 ft 395 kts 131°
2026-05-04 01:23 -37.71475 173.93130 24559 ft 392 kts 131°
2026-05-04 01:23 -37.73304 173.95655 24042 ft 389 kts 131°
2026-05-04 01:23 -37.75121 173.98166 23502 ft 384 kts 131°
2026-05-04 01:24 -37.76913 174.00643 23010 ft 379 kts 131°
2026-05-04 01:24 -37.78682 174.03092 22506 ft 375 kts 131°
2026-05-04 01:24 -37.80409 174.05482 22033 ft 372 kts 131°
2026-05-04 01:24 -37.82151 174.07897 21542 ft 371 kts 131°
2026-05-04 01:25 -37.83883 174.10297 21050 ft 367 kts 131°
2026-05-04 01:25 -37.85595 174.12673 20578 ft 364 kts 131°
2026-05-04 01:25 -37.87291 174.15037 20083 ft 361 kts 129°
2026-05-04 01:25 -37.88643 174.17683 19608 ft 356 kts 112°
2026-05-04 01:26 -37.89349 174.20653 19140 ft 351 kts 97°
2026-05-04 01:26 -37.89402 174.23719 18648 ft 348 kts 86°
2026-05-04 01:26 -37.89279 174.26761 18186 ft 345 kts 86°
2026-05-04 01:26 -37.89161 174.29867 17913 ft 366 kts 86°
2026-05-04 01:27 -37.89039 174.33121 17649 ft 370 kts 86°
2026-05-04 01:27 -37.88921 174.36354 17387 ft 366 kts 86°
2026-05-04 01:27 -37.88804 174.39567 16917 ft 364 kts 86°
2026-05-04 01:27 -37.88686 174.42744 16415 ft 360 kts 86°
2026-05-04 01:28 -37.88569 174.45890 15915 ft 355 kts 86°
2026-05-04 01:28 -37.88452 174.48992 15422 ft 351 kts 86°
2026-05-04 01:28 -37.88335 174.52058 14940 ft 347 kts 86°
2026-05-04 01:28 -37.88219 174.55095 14460 ft 343 kts 86°
2026-05-04 01:29 -37.88103 174.58095 13953 ft 340 kts 86°
2026-05-04 01:29 -37.87987 174.61061 13479 ft 335 kts 86°
2026-05-04 01:29 -37.87873 174.63985 13023 ft 330 kts 86°
2026-05-04 01:29 -37.87759 174.66871 12420 ft 330 kts 86°
2026-05-04 01:30 -37.87642 174.69809 11555 ft 339 kts 87°
2026-05-04 01:30 -37.87522 174.72794 10981 ft 338 kts 87°
2026-05-04 01:30 -37.87404 174.75722 10590 ft 330 kts 87°
2026-05-04 01:30 -37.87288 174.78594 10291 ft 320 kts 87°
2026-05-04 01:31 -37.87177 174.81346 10166 ft 306 kts 87°
2026-05-04 01:31 -37.87049 174.83974 10027 ft 293 kts 86°
2026-05-04 01:31 -37.86911 174.86485 9902 ft 280 kts 86°
2026-05-04 01:31 -37.86774 174.88944 9659 ft 283 kts 86°
2026-05-04 01:32 -37.86636 174.91433 9333 ft 283 kts 86°
2026-05-04 01:32 -37.86501 174.93912 8976 ft 281 kts 86°
2026-05-04 01:32 -37.86368 174.96356 8626 ft 277 kts 86°
2026-05-04 01:32 -37.86237 174.98769 8290 ft 273 kts 86°
2026-05-04 01:33 -37.86107 175.01158 7949 ft 270 kts 86°
2026-05-04 01:33 -37.85979 175.03519 7609 ft 268 kts 86°
2026-05-04 01:33 -37.85851 175.05857 7272 ft 266 kts 86°
2026-05-04 01:33 -37.85723 175.08179 6939 ft 263 kts 86°
2026-05-04 01:34 -37.85596 175.10471 6600 ft 260 kts 86°
2026-05-04 01:34 -37.85472 175.12742 6275 ft 257 kts 86°
2026-05-04 01:34 -37.85347 175.14992 5948 ft 255 kts 86°
2026-05-04 01:34 -37.85223 175.17216 5626 ft 253 kts 86°
2026-05-04 01:35 -37.85099 175.19427 5302 ft 251 kts 86°
2026-05-04 01:35 -37.84979 175.21619 4976 ft 249 kts 85°
2026-05-04 01:35 -37.84550 175.23712 4662 ft 246 kts 62°
2026-05-04 01:35 -37.83459 175.25339 4350 ft 244 kts 36°
2026-05-04 01:36 -37.81929 175.26219 4041 ft 242 kts 15°
2026-05-04 01:36 -37.80310 175.26788 3722 ft 241 kts 15°
2026-05-04 01:36 -37.78699 175.27362 3414 ft 240 kts 15°
2026-05-04 01:36 -37.77103 175.27937 3217 ft 234 kts 15°
2026-05-04 01:37 -37.75573 175.28490 3135 ft 224 kts 15°
2026-05-04 01:37 -37.74121 175.29016 3057 ft 215 kts 15°
2026-05-04 01:37 -37.72738 175.29612 2987 ft 206 kts 30°
2026-05-04 01:37 -37.71772 175.30862 2908 ft 197 kts 63°
2026-05-04 01:38 -37.71486 175.32503 2798 ft 191 kts 93°
2026-05-04 01:38 -37.71794 175.34122 2585 ft 190 kts 106°
2026-05-04 01:38 -37.72174 175.35707 2476 ft 186 kts 106°
2026-05-04 01:38 -37.72758 175.37176 2512 ft 192 kts 135°
2026-05-04 01:39 -37.73926 175.37936 2397 ft 191 kts 174°
2026-05-04 01:39 -37.75208 175.37729 2326 ft 180 kts 197°
2026-05-04 01:39 -37.76343 175.37231 2243 ft 167 kts 202°
2026-05-04 01:39 -37.77395 175.36723 2163 ft 155 kts 201°
2026-05-04 01:40 -37.78373 175.36279 1960 ft 146 kts 199°
2026-05-04 01:40 -37.79338 175.35880 1649 ft 145 kts 198°
2026-05-04 01:40 -37.80293 175.35516 1432 ft 137 kts 197°
2026-05-04 01:40 -37.81170 175.35197 1226 ft 128 kts 196°
2026-05-04 01:41 -37.82024 175.34888 962 ft 126 kts 196°
2026-05-04 01:41 -37.82861 175.34583 715 ft 124 kts 196°
2026-05-04 01:41 -37.83718 175.34273 595 ft 128 kts 195°
2026-05-04 01:41 -37.84575 175.33980 423 ft 128 kts 195°
2026-05-04 01:42 -37.85429 175.33678 255 ft 127 kts 197°
2026-05-04 01:42 -37.86250 175.33373 178 ft 103 kts 197°
2026-05-04 01:42 -37.86656 175.33227 175 ft 27 kts 196°
2026-05-04 01:42 -37.86753 175.33205 175 ft 7 kts 176°
2026-05-04 01:43 -37.86778 175.33181 175 ft 2 kts 277°
2026-05-04 01:43 -37.86755 175.33188 175 ft 9 kts 22°
2026-05-04 01:43 -37.86652 175.33218 175 ft 20 kts 17°
2026-05-04 01:43 -37.86550 175.33266 176 ft 12 kts 32°
2026-05-04 01:44 -37.86544 175.33364 176 ft 14 kts 107°
2026-05-04 01:44 -37.86564 175.33472 176 ft 9 kts 79°
2026-05-04 01:44 -37.86525 175.33527 176 ft 7 kts 86°
2026-05-04 01:44 -37.86526 175.33568 176 ft 3 kts 90°
2026-05-04 01:45 -37.86526 175.33582 176 ft 0 kts 89°